Location: Fort Worth, Tx
(32.7431°N, 97.3695°W)
Time: 15:30:35
(UTC-04:00)

Explorer 11/Cluster Stage 4 - Visible Passes

Search period start: 13 October 2024 00:00
Search period end: 23 October 2024 00:00
Orbit: 464 x 1207 km, 28.8° (Epoch: 13 October)

Date Brightness Start Highest point End Pass type
(mag) Time Alt. Az. Time Alt. Az. Time Alt. Az.
13 Oct 7.3 21:05:33 10° WSW 21:12:53 59° S 21:16:32 26° ESE visible
13 Oct 8.4 22:54:26 10° W 22:58:06 31° WSW 22:58:06 31° WSW visible
14 Oct 7.4 20:45:49 10° WSW 20:53:22 61° S 20:58:20 18° E visible
14 Oct 7.8 22:34:43 10° W 22:39:54 44° WSW 22:39:54 44° WSW visible
15 Oct 7.5 20:26:05 10° WSW 20:33:48 63° S 20:40:07 12° E visible
15 Oct 7.3 22:15:00 10° W 22:21:41 56° SSW 22:21:41 56° SSW visible
16 Oct 7.6 20:06:23 10° WSW 20:14:12 64° S 20:21:08 10° E visible
16 Oct 7.2 21:55:16 10° W 22:02:35 57° S 22:03:27 53° SSE visible
16 Oct 9.7 23:44:42 10° W 23:45:01 11° W 23:45:01 11° W visible
17 Oct 7.5 21:35:32 10° W 21:43:01 57° SSW 21:45:16 40° SE visible
17 Oct 9.3 23:25:00 10° W 23:26:49 17° WSW 23:26:49 17° WSW visible
18 Oct 7.6 21:15:48 10° W 21:23:25 56° SSW 21:27:06 28° SE visible
18 Oct 9.0 23:05:17 10° W 23:08:39 22° WSW 23:08:39 22° WSW visible
19 Oct 7.8 20:56:05 10° W 21:03:46 56° SSW 21:08:58 19° ESE visible
19 Oct 8.7 22:45:34 10° W 22:50:31 27° SW 22:50:31 27° SW visible
20 Oct 7.9 20:36:23 10° W 20:44:06 55° SSW 20:50:53 11° ESE visible
20 Oct 8.5 22:25:52 10° W 22:32:05 28° SSW 22:32:27 27° SSW visible
21 Oct 8.0 20:16:42 10° W 20:24:25 54° SSW 20:31:40 10° ESE visible
21 Oct 8.6 22:06:10 10° W 22:12:26 27° SSW 22:14:28 24° S visible
22 Oct 8.9 21:46:30 10° W 21:52:45 26° SSW 21:56:33 17° SSE visible
